Simultaneous Nadir Overpasses (SNOs) Predictions

Prediction of SNOs between NOAA-19 and NPP Satellite Orbit:

Table of predicted SNOs for the next 14.0 days since TLE Epoch: 3/16/2018
Index Date (NOAA-19) Time (NOAA-19) Lat,Lon (NOAA-19) SZA (NOAA-19 ) Date (NPP) Time (NPP) Lat,Lon (NPP) SZA (NPP ) Distance(km) Time Diff (sec)
1 03/20/2018 16:56:38 -80.62, 59.07 96.24 03/20/2018 16:57:50 -80.62, 59.08 96.27 0.85 72
2 03/20/2018 17:47:43 80.62,-133.73 83.75 03/20/2018 17:48:35 80.62,-133.57 83.71 2.96 52
3 03/20/2018 18:38:39 -80.62, 33.65 96.28 03/20/2018 18:39:20 -80.62, 33.69 96.30 0.82 41
4 03/20/2018 19:29:44 80.62,-159.14 83.72 03/20/2018 19:30:05 80.62,-158.97 83.69 3.14 21
5 03/20/2018 20:20:40 -80.62, 8.24 96.31 03/20/2018 20:20:50 -80.63, 8.29 96.32 0.96 10
6 03/20/2018 21:11:45 80.62, 175.45 83.68 03/20/2018 21:11:35 80.62, 175.63 83.66 3.34 10
7 03/20/2018 22:02:41 -80.63, -17.18 96.35 03/20/2018 22:02:20 -80.63, -17.11 96.35 1.21 21
8 03/20/2018 22:53:45 80.64, 150.39 83.61 03/20/2018 22:53:05 80.63, 150.23 83.64 3.27 40
9 03/20/2018 23:44:42 -80.63, -42.59 96.39 03/20/2018 23:43:50 -80.63, -42.51 96.37 1.51 52




NCC Satellite Simultaneous Nadir Overpasses (SNOs) Prediction Service
